Date,TemperatureHighF,TemperatureAvgF,TemperatureLowF,DewpointHighF,DewpointAvgF,DewpointLowF,HumidityHigh,HumidityAvg,HumidityLow,PressureMaxIn,PressureMinIn,WindSpeedMaxMPH,WindSpeedAvgMPH,GustSpeedMaxMPH,PrecipitationSumIn
2013-1-1,63,52,45,60,45,30,91,78,55,30.21,29.91,1,0,0,1.38
2013-1-2,45,41,38,30,26,23,60,55,50,30.33,30.18,1,0,0,0.00
2013-1-3,52,42,33,25,20,15,63,44,26,30.48,30.30,0,0,0,0.00
2013-1-4,46,43,41,22,20,18,44,39,34,30.59,30.39,0,0,0,0.00
2013-1-5,44,42,40,38,33,20,83,72,38,30.44,30.30,2,0,0,0.70
2013-1-6,56,44,36,38,32,23,86,63,33,30.42,30.21,4,0,4,0.00
2013-1-7,55,44,32,34,26,23,74,53,30,30.44,30.18,0,0,0,0.00
2013-1-8,60,53,46,58,46,30,97,78,51,30.21,29.94,9,1,9,0.29
2013-1-9,64,61,58,63,60,55,97,93,90,30.00,29.83,13,3,13,1.42
2013-1-10,65,59,51,61,51,38,98,79,39,30.06,29.88,14,2,14,0.29
2013-1-11,69,56,42,57,40,29,90,60,23,30.09,29.83,10,2,10,0.00
2013-1-12,71,69,62,67,60,53,96,75,55,29.91,29.62,20,7,20,0.00
2013-1-13,70,48,40,60,38,27,83,66,51,30.15,29.65,13,5,13,0.00
2013-1-14,42,39,36,32,28,25,80,67,56,30.27,30.06,10,4,10,0.38
2013-1-15,37,35,32,28,26,24,78,71,61,30.21,30.06,10,3,10,0.04
2013-1-16,50,39,33,26,18,9,76,47,26,30.39,30.06,10,3,10,0.00
2013-1-17,60,40,28,19,15,10,55,38,18,30.65,30.30,1,1,1,0.00
2013-1-18,60,42,31,28,18,12,70,41,16,30.74,30.39,8,1,8,0.00
2013-1-19,63,45,31,32,24,15,65,46,24,30.56,30.18,8,1,8,0.00
2013-1-20,69,50,36,42,29,25,77,49,22,30.44,30.06,6,1,6,0.00
2013-1-21,68,50,39,44,31,26,76,50,23,30.39,30.15,6,0,6,0.00
2013-1-22,68,50,38,33,29,25,68,46,23,30.48,30.21,8,1,8,0.00
2013-1-23,71,54,40,48,34,27,82,49,23,30.44,30.18,12,2,12,0.00
2013-1-24,69,60,52,57,48,38,88,66,42,30.33,30.12,12,2,12,0.00
2013-1-25,74,63,56,60,46,35,90,60,24,30.18,30.00,10,2,10,0.00
2013-1-26,74,62,54,62,44,33,92,57,23,30.21,30.00,12,1,12,0.00
2013-1-27,72,63,54,54,45,39,83,55,32,30.18,30.03,14,4,14,0.00
2013-1-28,74,68,64,55,49,40,70,53,31,30.12,29.94,16,5,16,0.00
2013-1-29,72,69,57,62,55,40,77,62,42,29.97,29.59,26,8,26,0.00
2013-1-30,57,51,36,49,21,5,79,36,17,30.33,29.68,15,4,15,0.00
2013-1-31,62,47,30,25,15,9,62,32,15,30.44,30.18,10,2,10,0.33
2013-2-1,67,52,42,29,22,15,52,34,15,30.48,30.24,10,2,10,0.00
2013-2-2,69,54,40,40,30,23,72,42,23,30.36,30.12,10,1,10,0.00
2013-2-3,68,54,43,40,25,12,72,38,14,30.36,30.06,8,1,8,0.00
2013-2-4,64,55,42,52,38,21,75,54,40,30.15,29.83,10,1,10,0.04
2013-2-5,73,63,58,61,49,38,88,64,31,30.00,29.80,2,0,2,0.05
2013-2-6,61,59,57,56,53,50,86,81,69,30.03,29.83,10,0,10,0.67
2013-2-7,63,59,53,55,50,44,87,74,51,29.94,29.83,4,0,4,0.00
2013-2-8,61,57,49,52,38,31,79,51,34,30.15,29.94,10,3,10,0.00
2013-2-9,64,54,44,53,41,32,73,61,45,30.18,29.85,15,3,15,0.00
2013-2-10,71,63,58,60,52,38,80,67,40,29.91,29.68,23,3,23,0.21
2013-2-11,59,52,50,51,40,28,82,66,36,30.15,29.88,9,2,9,0.37
2013-2-12,58,54,51,55,49,42,89,83,72,30.00,29.71,9,1,9,0.25
2013-2-13,56,48,38,42,25,19,72,42,25,30.12,29.88,10,3,10,0.00
2013-2-14,61,46,32,34,22,16,80,44,18,30.21,30.00,5,1,5,0.00
2013-2-15,64,48,35,34,21,14,72,37,17,30.36,30.12,8,1,8,0.00
2013-2-16,56,44,32,14,9,5,39,25,14,30.50,30.24,13,2,13,0.00
2013-2-17,66,49,33,30,20,13,60,34,17,30.36,30.06,0,0,0,0.00
2013-2-18,70,62,47,55,39,24,78,46,31,30.15,29.83,20,2,20,0.43
2013-2-19,67,51,41,45,21,5,73,34,13,30.21,30.03,11,2,11,0.00
2013-2-20,62,52,46,24,17,6,30,25,15,30.21,29.91,14,4,14,0.00
2013-2-21,74,62,53,60,45,24,90,56,31,29.91,29.68,21,5,21,0.04
2013-2-22,63,55,50,44,34,25,77,48,25,30.03,29.83,2,0,3,0.00
2013-2-23,70,54,45,31,27,22,53,37,19,30.03,29.85,1,1,2,0.00
2013-2-24,71,55,38,36,28,22,75,40,21,30.00,29.68,0,0,0,0.00
2013-2-25,74,61,46,58,31,2,81,40,12,29.71,29.35,13,1,13,0.00
2013-2-26,62,50,40,19,12,4,38,22,15,30.00,29.65,14,3,14,0.00
2013-2-27,73,52,37,29,17,1,59,29,13,30.21,29.88,12,3,12,0.00
2013-2-28,56,43,36,14,8,0,39,25,17,30.36,30.12,12,2,12,0.00
2013-3-1,62,46,32,17,10,3,42,25,13,30.33,30.06,12,3,12,0.00
2013-3-2,52,40,29,13,7,-2,40,26,15,30.39,30.24,12,1,12,0.00
2013-3-3,68,46,26,22,12,4,49,28,12,30.42,30.06,10,2,10,0.00
2013-3-4,74,62,42,44,35,20,60,39,21,30.09,29.71,21,5,21,0.00
2013-3-5,69,60,42,47,24,0,57,29,12,30.39,29.88,13,3,13,0.00
2013-3-6,67,47,31,13,7,-2,33,21,12,30.50,30.24,7,1,7,0.00
2013-3-7,70,50,32,24,16,9,51,29,14,30.44,30.18,10,2,10,0.00
2013-3-8,74,56,39,35,28,18,58,37,20,30.33,30.06,14,3,14,0.00
2013-3-9,73,62,54,51,41,32,71,46,26,30.15,29.83,21,5,21,0.00
2013-3-10,66,58,48,50,42,18,81,57,29,30.06,29.77,20,4,20,0.29
2013-3-11,62,48,37,19,14,4,40,26,14,30.18,29.94,10,2,10,0.00
2013-3-12,57,36,30,23,15,12,56,43,19,30.27,30.15,5,0,5,0.00
2013-3-13,73,53,35,26,17,5,60,28,12,30.50,30.27,8,2,8,0.00
2013-3-14,76,54,36,26,17,12,50,27,13,30.50,30.24,11,2,11,0.00
2013-3-15,81,59,40,44,28,16,69,35,14,30.36,30.03,14,3,14,0.00
2013-3-16,81,65,55,50,38,25,79,43,14,30.12,29.83,18,4,18,0.00
2013-3-17,80,66,57,55,45,35,76,49,22,29.94,29.71,20,4,20,0.00
2013-3-18,88,73,66,57,46,33,71,43,17,29.88,29.59,13,3,13,0.00
2013-3-19,82,67,51,48,29,17,58,26,11,30.03,29.83,9,2,9,0.00
2013-3-20,63,61,60,33,23,16,33,23,18,30.06,29.97,10,3,10,0.00
2013-3-21,70,58,44,36,24,16,40,28,14,30.09,29.77,20,5,20,0.00
2013-3-22,84,70,61,58,46,35,75,45,20,29.83,29.59,16,4,16,0.00
2013-3-23,70,67,63,56,51,43,69,58,47,29.74,29.53,5,1,5,0.00
2013-3-24,63,55,40,53,23,3,81,34,14,30.15,29.59,14,4,14,0.00
2013-3-25,60,45,32,14,8,2,46,24,13,30.39,30.15,10,2,10,0.00
2013-3-26,61,40,29,10,4,-4,31,24,13,30.44,30.30,9,1,9,0.00
2013-3-27,71,58,35,20,17,12,45,21,13,30.53,30.21,11,3,11,0.00
2013-3-28,73,58,45,43,29,19,65,34,21,30.39,30.18,12,3,12,0.00
2013-3-29,76,62,50,55,39,30,86,50,21,30.33,30.12,14,3,14,0.00
2013-3-30,72,66,61,50,42,32,64,44,23,30.00,29.97,10,4,10,0.00
2013-3-31,80,63,57,58,51,28,90,69,23,30.00,29.88,18,2,18,0.30
2013-4-1,81,70,58,58,40,32,88,36,20,30.12,29.91,9,2,9,0.00
2013-4-2,76,66,55,56,42,32,89,47,24,30.06,29.85,13,2,13,0.00
2013-4-3,62,53,47,57,43,32,89,71,47,30.12,29.80,9,3,9,1.05
2013-4-4,51,47,45,41,33,24,83,59,39,30.21,30.06,7,1,7,0.04
2013-4-5,73,59,44,32,24,16,53,29,13,30.27,30.03,8,2,8,0.00
2013-4-6,73,58,46,49,34,28,82,45,21,30.18,29.94,16,3,16,0.00
2013-4-7,76,66,54,49,39,30,67,40,20,30.03,29.83,15,6,15,0.00
2013-4-8,77,69,63,59,45,35,81,46,24,29.91,29.77,22,7,22,0.00
2013-4-9,79,71,65,54,50,43,69,48,30,29.83,29.71,20,6,20,0.00
2013-4-10,78,67,48,63,50,37,85,56,34,29.83,29.62,21,6,21,0.71
2013-4-11,65,50,42,43,34,21,87,59,20,29.97,29.71,5,0,5,1.25
2013-4-12,80,57,41,43,27,16,86,40,11,30.09,29.83,0,0,0,0.00
2013-4-13,81,61,45,43,29,17,73,35,11,30.12,29.80,14,2,14,0.00
2013-4-14,83,66,55,48,40,29,71,41,16,29.88,29.59,10,2,10,0.00
2013-4-15,86,71,59,62,50,37,88,55,19,29.85,29.68,13,3,13,0.00
2013-4-16,80,73,70,67,58,45,88,64,32,29.88,29.74,16,4,16,0.00
2013-4-17,76,72,70,64,56,49,79,58,40,29.88,29.68,18,7,18,0.00
2013-4-18,76,65,48,64,48,30,77,56,39,30.00,29.59,23,6,23,0.21
2013-4-19,64,50,40,31,18,8,52,30,14,30.24,29.97,10,1,10,0.00
2013-4-20,72,52,35,29,19,12,62,32,13,30.33,30.06,13,2,13,0.00
2013-4-21,76,57,42,37,27,19,77,37,13,30.30,30.03,9,1,9,0.00
2013-4-22,81,62,47,39,29,19,69,35,11,30.24,29.91,9,2,9,0.00
2013-4-23,78,66,51,54,42,33,73,45,24,30.03,29.88,14,2,14,0.00
2013-4-24,68,58,46,62,35,23,79,45,22,30.21,29.94,7,0,7,0.45
2013-4-25,73,60,48,36,25,15,60,30,13,30.36,30.18,0,0,0,0.00
2013-4-26,80,67,58,55,39,23,65,37,24,30.30,30.12,13,0,13,0.00
2013-4-27,80,69,65,62,54,43,81,62,31,30.18,30.06,0,0,0,0.00
2013-4-28,79,70,60,42,36,32,50,31,19,30.00,29.85,0,0,0,0.00
2013-4-29,84,68,56,61,44,28,96,49,17,30.00,29.83,0,0,0,0.00
2013-4-30,84,69,63,66,49,33,96,55,19,29.91,29.71,0,0,0,0.05
2013-5-1,84,71,64,62,49,35,87,52,19,29.91,29.77,0,0,0,0.00
2013-5-2,76,64,50,59,43,25,84,48,24,30.15,29.85,7,0,7,0.00
2013-5-3,66,52,42,26,18,6,49,28,13,30.21,30.03,1,0,0,0.00
2013-5-4,79,58,37,29,20,11,50,27,12,30.15,29.80,0,0,0,0.00
2013-5-5,68,55,44,26,20,14,42,27,14,30.15,29.94,0,0,0,0.00
2013-5-6,78,59,41,34,26,17,59,32,12,30.15,29.91,0,0,0,0.00
2013-5-7,86,68,53,44,31,20,63,30,10,30.09,29.88,0,0,0,0.00
2013-5-8,84,68,54,54,37,26,71,38,13,30.15,29.94,0,0,0,0.00
2013-5-9,73,67,59,60,52,45,82,60,42,30.06,29.94,0,0,0,0.25
2013-5-10,74,66,62,61,55,42,90,69,35,30.06,29.83,18,1,18,2.17
2013-5-11,84,70,63,62,46,31,90,49,18,30.12,29.88,6,0,6,0.00
2013-5-12,81,66,56,48,37,26,68,37,16,30.24,30.06,6,1,6,0.00
2013-5-13,82,64,48,44,28,16,74,32,11,30.39,30.12,9,1,9,0.00
2013-5-14,84,67,51,58,32,17,79,33,11,30.30,30.06,14,2,14,0.00
2013-5-15,74,66,56,60,43,34,78,45,29,30.15,29.94,12,3,12,0.00
2013-5-16,81,72,65,62,48,36,82,46,21,29.97,29.77,18,5,18,0.00
2013-5-17,86,75,68,62,51,40,76,47,21,29.97,29.83,14,3,14,0.00
2013-5-18,89,77,70,62,48,37,73,40,18,29.94,29.88,14,5,14,0.00
2013-5-19,89,77,71,58,48,37,63,38,17,29.94,29.83,18,6,18,0.00
2013-5-20,86,77,72,64,52,40,74,43,21,29.94,29.77,16,6,16,0.00
2013-5-21,86,78,72,58,51,40,59,41,20,29.88,29.65,21,5,21,0.00
2013-5-22,86,74,65,64,52,42,87,50,23,29.91,29.77,9,0,9,0.04
2013-5-23,88,76,67,70,52,39,87,50,20,30.03,29.88,0,0,0,0.00
2013-5-24,71,69,68,65,59,56,82,71,59,30.12,30.03,0,0,0,0.00
2013-6-9,78,71,69,61,55,43,75,58,30,29.97,29.83,6,0,6,0.00
2013-6-10,92,77,66,72,54,38,95,53,16,29.97,29.88,10,1,10,0.00
2013-6-11,93,79,68,70,52,39,84,46,17,30.06,29.94,13,2,13,0.04
2013-6-12,94,80,69,71,51,38,84,44,16,30.09,29.91,11,2,11,0.00
2013-6-13,97,81,70,70,52,36,84,42,13,30.09,29.83,6,0,6,0.00
2013-6-14,96,82,69,70,52,38,82,41,16,29.97,29.77,9,0,9,0.04
2013-6-15,94,77,69,66,55,41,80,52,18,29.94,29.83,10,0,10,0.04
2013-6-16,94,80,69,71,52,37,86,45,16,30.03,29.88,9,1,9,0.05
2013-6-17,95,81,71,69,49,29,80,39,11,30.03,29.83,10,1,10,0.00
2013-6-18,93,78,69,64,53,36,70,46,16,30.00,29.85,10,1,10,0.00
2013-6-19,86,75,69,69,58,44,85,59,30,30.03,29.94,9,0,9,0.33
2013-6-20,94,78,70,73,56,37,88,52,16,30.06,29.94,12,1,12,0.08
2013-6-21,94,78,69,73,54,37,87,50,17,30.09,29.97,10,1,10,0.04
2013-6-22,91,78,68,72,52,-12,88,48,17,30.06,29.88,46,2,46,0.00
2013-6-23,92,78,68,69,51,38,82,44,17,30.03,29.88,17,1,17,0.00
2013-6-24,92,79,69,68,51,37,80,43,17,30.06,29.94,17,3,17,0.00
2013-6-25,92,80,72,66,51,38,77,41,17,30.06,29.91,18,4,18,0.00
2013-6-26,92,79,73,62,53,39,67,45,16,30.06,29.94,10,2,10,0.00
2013-6-27,92,92,92,40,40,40,16,16,16,30.03,30.03,4,4,4,0.00
2013-6-28,92,92,92,40,40,40,16,16,16,30.03,30.03,4,4,4,0.00
2013-6-29,92,92,92,40,40,40,16,16,16,30.03,30.03,4,4,4,0.00
2013-10-26,68,68,68,53,53,53,59,59,59,29.74,29.74,0,0,0,0.00
2013-10-27,73,70,68,55,54,53,59,56,53,29.97,29.74,0,0,0,0.00
2013-10-28,73,68,64,61,49,29,68,51,20,30.15,29.97,0,0,0,0.00
2013-10-29,80,69,60,61,47,20,81,52,19,30.15,30.00,0,0,0,0.00
2013-10-30,72,69,65,67,61,51,84,75,55,30.09,29.80,0,0,0,0.88
2013-10-31,74,68,61,68,61,55,87,79,63,29.80,29.59,12,0,12,2.62
2013-11-1,75,62,54,62,40,17,98,55,13,29.94,29.71,0,0,0,0.00
2013-11-2,68,58,45,53,24,6,81,33,12,30.30,29.94,0,0,0,0.00
2013-11-3,66,51,43,30,20,10,53,32,13,30.36,30.12,0,0,0,0.00
2013-11-4,75,61,44,34,27,19,54,31,13,30.21,30.03,6,0,6,0.00
2013-11-5,77,68,60,47,40,28,54,37,21,30.09,29.91,0,0,0,0.00
2013-11-6,81,67,50,59,44,26,70,46,20,30.24,29.94,1,0,0,0.17
2013-11-7,63,51,43,27,16,6,46,28,13,30.44,30.24,1,0,0,0.00
2013-11-8,65,52,43,28,19,9,50,30,12,30.50,30.24,0,0,0,0.00
2013-11-9,68,56,46,31,24,13,50,32,14,30.36,30.18,0,0,0,0.00
2013-11-10,69,56,47,33,28,24,49,35,19,30.39,30.18,0,0,0,0.00
2013-11-11,72,57,48,33,28,16,56,37,13,30.33,30.15,0,0,0,0.00
2013-11-12,70,52,39,48,25,4,84,37,17,30.68,30.30,4,0,0,0.00
2013-11-13,53,39,29,7,4,-1,38,24,15,30.80,30.44,4,0,2,0.00
2013-11-14,58,42,28,20,12,5,44,31,14,30.53,30.21,0,0,0,0.00
2013-11-15,76,59,44,35,29,20,48,34,17,30.24,29.94,0,0,0,0.00
2013-11-16,76,67,54,67,50,34,87,57,28,30.06,29.77,0,0,0,0.00
2013-11-17,82,74,70,67,55,36,83,56,21,29.94,29.77,0,0,0,0.04
2013-11-18,71,65,55,63,35,11,81,39,14,30.15,29.94,0,0,0,0.04
2013-11-19,66,54,44,20,14,9,38,22,12,30.24,30.06,0,0,0,0.00
2013-11-20,69,55,39,34,19,11,38,26,14,30.21,29.94,0,0,0,0.00
2013-11-21,74,67,59,61,44,34,77,46,26,30.15,29.94,0,0,0,0.00
2013-11-22,70,61,47,65,54,40,87,78,43,30.27,30.06,0,0,0,0.04
2013-11-23,49,46,40,46,33,12,90,62,31,30.44,30.24,4,0,4,0.04
2013-11-24,47,41,35,16,5,0,42,23,16,30.56,30.36,5,0,5,0.00
2013-11-25,40,37,35,33,26,14,80,65,40,30.42,29.97,2,0,0,0.83
2013-11-26,39,37,36,33,31,19,80,77,48,30.39,29.94,4,0,4,0.46
2013-11-27,46,36,28,29,12,-1,76,42,16,30.62,30.36,1,0,1,0.00
2013-11-28,48,35,27,19,11,4,58,38,19,30.74,30.53,0,0,0,0.00
2013-11-29,58,39,26,21,10,1,58,34,14,30.77,30.50,0,0,0,0.00
2013-11-30,64,46,31,29,17,11,51,34,15,30.62,30.30,0,0,0,0.00
2013-12-1,67,56,43,42,30,22,58,40,20,30.36,30.03,1,1,0,0.00
2013-12-2,71,60,58,53,42,31,74,53,24,30.03,29.83,1,1,1,0.00
2013-12-16,69,44,36,32,15,8,40,31,25,30.39,29.85,0,0,0,0.00
2013-12-17,52,36,29,27,15,11,61,42,31,30.53,30.36,0,0,0,0.00
2013-12-18,67,48,34,47,19,6,82,36,12,30.42,30.21,0,0,0,0.00
2013-12-19,71,59,46,47,35,26,67,43,21,30.30,29.94,0,0,0,0.00
2013-12-20,71,68,67,53,47,44,59,48,38,29.97,29.91,15,4,15,0.00
2013-12-22,68,68,68,53,53,53,59,59,59,29.74,29.74,0,0,0,0.00
2013-12-24,68,41,34,53,4,-2,59,22,16,30.50,29.74,0,0,0,0.00
2013-12-25,58,43,29,17,10,2,52,29,14,30.50,30.30,0,0,0,0.00
2013-12-26,62,48,36,20,14,6,46,28,13,30.56,30.33,0,0,0,0.00
2013-12-27,52,45,42,20,13,6,41,28,18,30.53,30.36,0,0,0,0.00
2013-12-28,53,45,37,18,11,6,40,26,15,30.39,30.06,0,0,0,0.00
2013-12-29,65,47,32,28,13,5,53,29,12,30.27,30.00,0,0,0,0.00
2013-12-30,48,42,36,23,12,8,39,30,25,30.48,30.18,1,0,0,0.00
2013-12-31,48,40,36,18,13,7,40,33,19,30.50,30.36,0,0,0,0.00
2014-1-1,61,50,42,33,24,14,45,36,25,30.39,30.12,0,0,0,0.00
2014-1-2,55,44,31,39,9,-5,54,25,15,30.53,30.12,5,0,5,0.00